DELTA 1 DEB, 7158

Orbit data source: Space-Track

DELTA 1 DEB, 7158 is space debris in SSO originally from a launch on Tue, 06 Nov 1973 UTC launched from the Air Force Western Test Range (AFWTR). Debris objects in space refer to the collection of defunct objects orbiting the Earth. Examples of debris include non-operational satellites, rocket bodies, and fragments generated from explosions, collisions, or faulty payload assembly.

Loading next visibility...
Identifier
7158, 1973-086DW
Orbit
SSO
Country
Flag of USUS
Related business
Manufacturer
Unknown
Mission
Spacecraft
Bus & Motor
Unknown
Mass
Unknown
Launch date (UTC)
1973-11-06 (52 years ago)
Launch vehicle
Unknown
Launch site
Air Force Western Test Range (AFWTR)
Object type
Payload
Rocket body
Debris
Shape & HBR
Unknown shape, 0.1 m
Radar Cross Section
Small (<0.1 m²)

Expand to show TLE details & history
Last TLE update: 1 day ago

TLE from 1 day ago
0 DELTA 1 DEB
1  7158U 73086DW  25293.02397221 -.00000020  00000-0  22112-3 0  9996
2  7158 102.4736 317.8350 0041236 175.8054 212.8685 12.31768498335551
Epoch: 2025-10-20T00:34Z
TLE epoch observation values (Epoch: 2025-10-20T00:34:31.198Z)
Latitude
27.72925°
Longitude
-86.17232°
Altitude
1,572.227 km
Speed
7.072 km/s
True Right ascension
20h 44m 45s
True Declination
27° 36' 08"
Sunlit
Object was in daylight at epoch
Visualization orbit readout
Latitude
Unknown
Longitude
Unknown
Altitude
Unknown
Speed
Unknown
Apparent Right ascension
Unknown
Apparent Declination
Unknown
Sunlit
N/A
Visualization observer readout
Local Sidereal Time
19:25:30
Azimuth
Unknown
Elevation
Unknown
Doppler factor
Unknown
Orbital elements
Apogee altitude
1,571.954 km
Perigee altitude
1,506.657 km
Semi-major axis
7,917.443 km
Eccentricity
0.00412
Inclination
102.4736°
RAAN
317.835°
Arg. of periapsis
175.8054°
True anomaly
212.61316°
Mean anomaly
212.8685°
Eccentric anomaly
212.74072°
Mean motion
3.08082 °/min
Orbital period
116.85 mins
BSTAR
0.00022112
Loading maneuver chart data...
Computing Atmospheric mass density...
Loading historical data...
Loading historical data...
Loading historical data...
Loading historical data...
Loading historical data...
Loading historical data...
Loading historical data...

Documentation

Showing up to 5 results
|